Starlink 31389

operational
NORAD ID: 59013 Int'l Des: 2024-036 Owner: SPXS Country: US Constellation: starlink
LEOCIRCULAR

关于 Starlink 31389

正在加载描述...

实时位置

正在加载3D地球...

即将过境

高度历史

Altitude vs Time

uPlot chart will show altitude changes over time

两行轨道根数

1 59013U 24036R 25257.50580674 -.00000515 00000-0 -52566-5 0 9991
2 59013 53.1608 176.8398 0001406 96.8593 263.2567 15.30190357 88355
Epoch: Sep 14, 2025 • Age: 20 hours

当前状态

高度 492.0 km
速度 7.62 km/s
星下点 -46.78°S, 69.36°W
发射日期 Feb 23, 2024
运行时间 1.5 years
类型 internet

技术详情

分类 Payload
质量 730.00 kg
干质量 700.00 kg
总质量 730.00 kg
长度 0.30 m
直径 4.10 m
跨度 29.00 m
形状 Box + pan
制造商 SPXS
平台类型 Starlink V2M
阶段状态 In Orbit
所有者/国家 SPXS/US

大型星座

Loading constellations...